AV194 Weather Reports


Display with metric or nautical units.
time (UTC)temp
F
wind
direction
speed
MPH
gust
MPH
rain 1hr
in
rain 24hr
in
rain mn
in
humidity
%
barometer
mb
20260505184043 86 186 3.0 12.0 0.00 0.00 0.00 34 1004.0
20260505183542 85 227 3.0 12.0 0.00 0.00 0.00 31 1004.2
20260505183141 85 229 5.0 11.0 0.00 0.00 0.00 30 1004.0
20260505182541 83 242 6.0 12.0 0.00 0.00 0.00 31 1004.3
20260505182044 84 213 5.0 15.0 0.00 0.00 0.00 30 1004.3
20260505181545 85 245 4.0 15.0 0.00 0.00 0.00 33 1004.3
20260505181039 86 237 4.0 12.0 0.00 0.00 0.00 30 1004.3
20260505180540 86 341 1.0 13.0 0.00 0.00 0.00 36 1004.4
20260505180040 85 94 4.0 13.0 0.00 0.00 0.00 31 1004.4
20260505175536 85 134 6.0 13.0 0.00 0.00 0.00 31 1004.5
20260505175035 86 209 4.0 12.0 0.00 0.00 0.00 33 1004.8
20260505174540 85 232 8.0 12.0 0.00 0.00 0.00 32 1004.8
20260505174033 85 223 3.0 13.0 0.00 0.00 0.00 32 1004.7
20260505173533 85 244 6.0 13.0 0.00 0.00 0.00 34 1005.1
20260505173032 84 207 5.0 11.0 0.00 0.00 0.00 35 1004.7
20260505172531 84 180 6.0 9.0 0.00 0.00 0.00 37 1004.8
20260505172030 85 216 5.0 12.0 0.00 0.00 0.00 33 1004.8
20260505171533 85 215 4.0 12.0 0.00 0.00 0.00 35 1005.0
20260505171032 84 245 5.0 15.0 0.00 0.00 0.00 35 1005.0
20260505170525 84 196 5.0 15.0 0.00 0.00 0.00 34 1005.1
20260505170024 84 300 5.0 11.0 0.00 0.00 0.00 35 1005.2
20260505165523 83 214 6.0 11.0 0.00 0.00 0.00 35 1005.5
20260505165023 83 201 5.0 12.0 0.00 0.00 0.00 37 1005.6
20260505164521 83 244 6.0 12.0 0.00 0.00 0.00 36 1005.9
20260505164025 83 257 5.0 10.0 0.00 0.00 0.00 35 1005.9
20260505163519 83 206 5.0 10.0 0.00 0.00 0.00 38 1006.0
20260505163019 82 198 6.0 10.0 0.00 0.00 0.00 36 1006.0
20260505162518 83 279 2.0 8.0 0.00 0.00 0.00 36 1006.1
20260505162017 82 302 1.0 8.0 0.00 0.00 0.00 40 1006.0
20260505161516 82 294 4.0 8.0 0.00 0.00 0.00 40 1006.1
20260505161019 82 187 4.0 9.0 0.00 0.00 0.00 40 1006.3
20260505160514 81 210 5.0 9.0 0.00 0.00 0.00 41 1006.4
20260505153006 76 211 2.0 6.0 0.00 0.00 0.00 49 1007.3
20260505152505 77 184 1.0 7.0 0.00 0.00 0.00 48 1007.3
20260505152008 78 236 4.0 7.0 0.00 0.00 0.00 47 1007.4
20260505151504 77 126 2.0 9.0 0.00 0.00 0.00 45 1007.5
20260505151002 77 181 3.0 9.0 0.00 0.00 0.00 46 1007.5
20260505150502 76 276 3.0 9.0 0.00 0.00 0.00 49 1007.6
20260505140551 71 221 3.0 7.0 0.00 0.00 0.00 55 1007.9
20260505125031 64 187 3.0 6.0 0.00 0.00 0.00 61 1008.1
20260505124530 63 248 3.0 6.0 0.00 0.00 0.00 63 1008.1
20260505124027 62 217 1.0 6.0 0.00 0.00 0.00 67 1008.0
20260505123530 61 296 1.0 5.0 0.00 0.00 0.00 64 1008.0
20260505123026 61 273 2.0 6.0 0.00 0.00 0.00 65 1008.0
20260505122526 61 221 1.0 7.0 0.00 0.00 0.00 66 1008.1
20260505122025 61 248 4.0 7.0 0.00 0.00 0.00 66 1008.2
20260505121524 60 251 2.0 5.0 0.00 0.00 0.00 67 1008.2
20260505121023 60 246 2.0 5.0 0.00 0.00 0.00 68 1008.2
20260505120520 60 237 3.0 5.0 0.00 0.00 0.00 67 1008.3
20260505120022 59 254 2.0 5.0 0.00 0.00 0.00 70 1008.1
20260505115518 59 232 1.0 5.0 0.00 0.00 0.00 70 1008.2
20260505115017 58 242 2.0 5.0 0.00 0.00 0.00 71 1008.3
20260505114515 57 204 2.0 5.0 0.00 0.00 0.00 72 1008.4
20260505114017 57 211 1.0 5.0 0.00 0.00 0.00 73 1008.2
20260505113512 56 227 2.0 5.0 0.00 0.00 0.00 73 1008.2
20260505113011 56 207 2.0 5.0 0.00 0.00 0.00 74 1008.2
20260505112514 55 259 1.0 3.0 0.00 0.00 0.00 75 1008.2
20260505112009 55 192 1.0 4.0 0.00 0.00 0.00 76 1008.1
20260505111512 54 206 0.0 4.0 0.00 0.00 0.00 77 1008.1
20260505111006 54 181 0.0 2.0 0.00 0.00 0.00 77 1008.1
20260505110507 54 182 1.0 5.0 0.00 0.00 0.00 78 1008.0
20260505102100 49 204 0.0 2.0 0.00 0.00 0.00 85 1008.0
20260505101603 49 204 0.0 1.0 0.00 0.00 0.00 85 1008.1
20260505101058 48 219 0.0 1.0 0.00 0.00 0.00 85 1008.0
20260505100559 48 219 0.0 1.0 0.00 0.00 0.00 85 1008.1
20260505100057 48 219 0.0 1.0 0.00 0.00 0.00 84 1008.0
20260505095553 48 219 0.0 1.0 0.00 0.00 0.00 84 1008.0
20260505095053 49 219 0.0 1.0 0.00 0.00 0.00 84 1008.0
20260505094552 49 219 0.0 1.0 0.00 0.00 0.00 83 1008.1
20260505094052 49 219 0.0 1.0 0.00 0.00 0.00 83 1008.2
20260505093551 49 219 0.0 1.0 0.00 0.00 0.00 83 1008.2
20260505093052 49 219 0.0 1.0 0.00 0.00 0.00 83 1008.2
20260505092551 49 219 0.0 1.0 0.00 0.00 0.00 83 1008.2
20260505092050 49 219 0.0 1.0 0.00 0.00 0.00 83 1008.1
20260505091552 49 219 0.0 1.0 0.00 0.00 0.00 84 1008.2
20260505091049 49 219 0.0 1.0 0.00 0.00 0.00 84 1008.2
20260505090549 49 219 0.0 1.0 0.00 0.00 0.00 84 1008.2
20260505090049 49 221 0.0 1.0 0.00 0.00 0.00 83 1008.2
20260505085548 49 221 0.0 1.0 0.00 0.00 0.00 84 1008.2
20260505085048 49 221 0.0 1.0 0.00 0.00 0.00 83 1008.2
20260505084547 49 221 0.0 1.0 0.00 0.00 0.00 83 1008.2
20260505084046 49 221 0.0 1.0 0.00 0.00 0.00 83 1008.2
20260505083547 49 221 0.0 1.0 0.00 0.00 0.00 83 1008.2
20260505083046 49 221 0.0 1.0 0.00 0.00 0.00 83 1008.2
20260505082545 49 221 0.0 1.0 0.00 0.00 0.00 82 1008.3
20260505082045 49 221 0.0 1.0 0.00 0.00 0.00 82 1008.3
20260505081551 49 221 0.0 1.0 0.00 0.00 0.00 82 1008.4
20260505081045 49 221 0.0 2.0 0.00 0.00 0.00 82 1008.5
20260505080544 49 221 0.0 2.0 0.00 0.00 0.00 82 1008.5
20260505080048 49 217 0.0 1.0 0.00 0.00 0.00 82 1008.4
20260505075545 49 217 0.0 1.0 0.00 0.00 0.00 82 1008.3
20260505075042 49 215 0.0 1.0 0.00 0.00 0.00 82 1008.4
20260505074541 49 214 0.0 1.0 0.00 0.00 0.00 82 1008.4
20260505074042 49 208 0.0 1.0 0.00 0.00 0.00 81 1008.5
20260505073541 49 205 0.0 1.0 0.00 0.00 0.00 81 1008.5
20260505073048 49 205 0.0 2.0 0.00 0.00 0.00 80 1008.5
20260505072540 49 205 0.0 2.0 0.00 0.00 0.00 81 1008.5
20260505072043 49 185 0.0 1.0 0.00 0.00 0.00 81 1008.4
20260505071550 49 185 0.0 1.0 0.00 0.00 0.00 80 1008.4
20260505071038 49 185 0.0 1.0 0.00 0.00 0.00 80 1008.4
20260505070540 49 185 0.0 1.0 0.00 0.00 0.00 79 1008.5
20260505070038 49 185 0.0 1.0 0.00 0.00 0.00 79 1008.6
20260505065537 49 185 0.0 1.0 0.00 0.00 0.00 79 1008.6
20260505065036 49 185 0.0 1.0 0.00 0.00 0.00 80 1008.6
20260505064535 49 185 0.0 1.0 0.00 0.00 0.00 80 1008.6
20260505064036 49 185 0.0 1.0 0.00 0.00 0.00 79 1008.6
20260505063534 50 185 0.0 1.0 0.00 0.00 0.00 79 1008.6
20260505063033 50 185 0.0 1.0 0.00 0.00 0.00 79 1008.7
20260505062533 50 186 0.0 0.0 0.00 0.00 0.00 79 1008.7
20260505062031 50 186 0.0 0.0 0.00 0.00 0.00 78 1008.7
20260505061533 50 186 0.0 0.0 0.00 0.00 0.00 78 1008.8
20260505061031 50 186 0.0 0.0 0.00 0.00 0.00 78 1008.7
20260505060531 50 186 0.0 1.0 0.00 0.00 0.00 77 1008.7
20260505060030 50 186 0.0 2.0 0.00 0.00 0.00 78 1008.8
20260505055531 50 186 0.0 2.0 0.00 0.00 0.00 77 1008.7
20260505055028 51 186 0.0 2.0 0.00 0.00 0.00 76 1008.7
20260505054546 51 186 0.0 2.0 0.00 0.00 0.00 75 1008.8
20260505054027 51 184 0.0 2.0 0.00 0.00 0.00 75 1008.8
20260505053526 51 168 0.0 2.0 0.00 0.00 0.00 75 1008.9
20260505053034 51 180 0.0 2.0 0.00 0.00 0.00 75 1008.9
20260505052524 51 180 0.0 2.0 0.00 0.00 0.00 74 1008.9
20260505052024 52 169 0.0 1.0 0.00 0.00 0.00 73 1008.9
20260505051534 52 169 0.0 2.0 0.00 0.00 0.00 72 1008.8
20260505051023 52 197 0.0 1.0 0.00 0.00 0.00 72 1008.8
20260505050521 52 197 0.0 1.0 0.00 0.00 0.00 71 1008.8
20260505041515 54 213 0.0 2.0 0.00 0.00 0.00 68 1008.7
20260505041010 54 215 1.0 2.0 0.00 0.00 0.00 68 1008.7
20260505040509 54 198 0.0 2.0 0.00 0.00 0.00 69 1008.7
20260505040008 54 199 0.0 1.0 0.00 0.00 0.00 68 1008.7
20260505035507 54 199 0.0 2.0 0.00 0.00 0.00 68 1008.6
20260505035007 54 199 0.0 2.0 0.00 0.00 0.00 68 1008.5
20260505034507 55 199 0.0 2.0 0.00 0.00 0.00 66 1008.5
20260505034012 55 180 0.0 1.0 0.00 0.00 0.00 66 1008.4
20260505033507 55 180 0.0 2.0 0.00 0.00 0.00 65 1008.5
20260505033007 56 180 0.0 2.0 0.00 0.00 0.00 63 1008.5
20260505032507 57 175 0.0 4.0 0.00 0.00 0.00 61 1008.5
20260505032009 57 178 1.0 4.0 0.00 0.00 0.00 61 1008.4
20260505031506 58 153 0.0 2.0 0.00 0.00 0.00 60 1008.5
20260505031009 58 196 0.0 2.0 0.00 0.00 0.00 60 1008.5
20260505030506 58 202 1.0 2.0 0.00 0.00 0.00 59 1008.5
20260505030021 58 188 0.0 2.0 0.00 0.00 0.00 59 1008.5
20260505025507 59 196 0.0 2.0 0.00 0.00 0.00 57 1008.4
20260505025006 59 205 0.0 2.0 0.00 0.00 0.00 56 1008.4
20260505024505 59 199 0.0 5.0 0.00 0.00 0.00 56 1008.3
20260505024005 59 183 1.0 3.0 0.00 0.00 0.00 56 1008.3
20260505023505 59 265 0.0 2.0 0.00 0.00 0.00 56 1008.3
20260505023005 60 198 0.0 5.0 0.00 0.00 0.00 55 1008.4
20260505022506 60 263 1.0 5.0 0.00 0.00 0.00 56 1008.4
20260505022006 60 212 2.0 5.0 0.00 0.00 0.00 56 1008.4
20260505021505 60 212 0.0 4.0 0.00 0.00 0.00 54 1008.4
20260505021004 60 212 1.0 6.0 0.00 0.00 0.00 54 1008.5
20260505020504 60 193 2.0 6.0 0.00 0.00 0.00 54 1008.4
20260505020005 61 207 2.0 7.0 0.00 0.00 0.00 54 1008.4
20260505015504 61 209 4.0 7.0 0.00 0.00 0.00 53 1008.4
20260505015005 61 203 1.0 5.0 0.00 0.00 0.00 53 1008.3
20260505014505 61 190 2.0 5.0 0.00 0.00 0.00 52 1008.2
20260505014003 61 188 1.0 5.0 0.00 0.00 0.00 53 1008.2
20260505013503 62 180 1.0 7.0 0.00 0.00 0.00 52 1008.1
20260505013003 62 166 2.0 7.0 0.00 0.00 0.00 50 1008.0
20260505012503 62 60 2.0 6.0 0.00 0.00 0.00 50 1007.9
20260505012003 62 292 1.0 5.0 0.00 0.00 0.00 51 1007.8
20260505011506 62 205 2.0 6.0 0.00 0.00 0.00 50 1007.7
20260505011004 62 110 2.0 6.0 0.00 0.00 0.00 50 1007.6
20260505010502 61 222 1.0 7.0 0.00 0.00 0.00 50 1007.6
20260505010002 61 232 2.0 7.0 0.00 0.00 0.00 51 1007.4
20260505005501 60 217 3.0 6.0 0.00 0.00 0.00 52 1007.2
20260505005003 59 247 1.0 5.0 0.00 0.00 0.00 57 1007.1
20260505004501 60 205 0.0 1.0 0.00 0.00 0.00 57 1007.0
20260505004000 60 218 0.0 0.0 0.00 0.00 0.00 56 1006.9
20260505003604 60 218 0.0 1.0 0.00 0.00 0.00 56 1006.8
20260505003105 60 218 0.0 1.0 0.00 0.00 0.00 56 1006.7
20260505002601 60 218 0.0 1.0 0.00 0.00 0.00 55 1006.6
20260505002100 60 218 0.0 1.0 0.00 0.00 0.00 54 1006.5
20260505001600 61 219 0.0 1.0 0.00 0.00 0.00 54 1006.3
20260505001059 61 219 0.0 1.0 0.00 0.00 0.00 54 1006.2
20260505000559 62 219 0.0 1.0 0.00 0.00 0.00 50 1006.2
20260505000112 62 219 0.0 4.0 0.00 0.00 0.00 51 1006.1
20260504235558 62 219 0.0 3.0 0.00 0.00 0.00 50 1006.0
20260504235058 63 206 0.0 2.0 0.00 0.00 0.00 50 1005.9
20260504234558 63 206 0.0 4.0 0.00 0.00 0.00 50 1005.9
20260504234057 64 225 0.0 4.0 0.00 0.00 0.00 46 1005.8
20260504233557 64 196 0.0 5.0 0.00 0.00 0.00 47 1005.7
20260504233100 65 182 0.0 5.0 0.00 0.00 0.00 45 1005.6
20260504232557 65 209 0.0 4.0 0.00 0.00 0.00 44 1005.6
20260504232058 66 181 1.0 6.0 0.00 0.00 0.00 41 1005.5
20260504231557 66 182 2.0 6.0 0.00 0.00 0.00 42 1005.5
20260504231057 67 194 1.0 5.0 0.00 0.00 0.00 39 1005.4
20260504230557 67 200 1.0 5.0 0.00 0.00 0.00 40 1005.3
20260504230057 68 315 0.0 6.0 0.00 0.00 0.00 38 1005.2
20260504225557 68 234 2.0 6.0 0.00 0.00 0.00 39 1005.1
20260504225100 68 236 1.0 5.0 0.00 0.00 0.00 37 1005.2
20260504224600 69 286 1.0 5.0 0.00 0.00 0.00 36 1005.1
20260504224057 69 216 2.0 7.0 0.00 0.00 0.00 34 1004.9
20260504223556 69 236 3.0 7.0 0.00 0.00 0.00 34 1004.9
20260504223057 69 240 1.0 5.0 0.00 0.00 0.00 37 1004.9
20260504222556 70 229 2.0 10.0 0.00 0.00 0.00 37 1004.9
20260504222054 70 355 2.0 10.0 0.00 0.00 0.00 34 1005.0
20260504221555 70 334 3.0 9.0 0.00 0.00 0.00 33 1005.0
20260504221054 71 288 4.0 10.0 0.00 0.00 0.00 34 1005.0
20260504220554 70 90 4.0 10.0 0.00 0.00 0.00 35 1004.9
20260504220112 70 218 1.0 7.0 0.00 0.00 0.00 33 1005.0
20260504215553 70 311 2.0 8.0 0.00 0.00 0.00 33 1005.0
20260504215152 70 182 4.0 8.0 0.00 0.00 0.00 33 1005.1
20260504214555 71 184 3.0 7.0 0.00 0.00 0.00 34 1005.1
20260504214052 71 171 2.0 11.0 0.00 0.00 0.00 32 1005.0
20260504213552 71 233 4.0 11.0 0.00 0.00 0.00 33 1005.0
20260504213059 71 296 4.0 8.0 0.00 0.00 0.00 33 1004.9
20260504212552 71 148 0.0 6.0 0.00 0.00 0.00 34 1005.0
20260504212051 71 232 1.0 7.0 0.00 0.00 0.00 34 1005.0
20260504211555 71 269 2.0 7.0 0.00 0.00 0.00 33 1005.0
20260504211053 71 205 1.0 10.0 0.00 0.00 0.00 32 1005.0
20260504210552 72 210 4.0 11.0 0.00 0.00 0.00 33 1005.0
20260504210052 72 219 3.0 11.0 0.00 0.00 0.00 33 1004.9
20260504205552 71 192 4.0 12.0 0.00 0.00 0.00 33 1005.0
20260504205049 71 82 3.0 10.0 0.00 0.00 0.00 33 1004.9
20260504204549 71 232 1.0 10.0 0.00 0.00 0.00 32 1005.0
20260504204049 72 297 2.0 9.0 0.00 0.00 0.00 32 1005.0
20260504203550 71 170 3.0 8.0 0.00 0.00 0.00 34 1005.0
20260504203049 71 214 1.0 10.0 0.00 0.00 0.00 34 1005.1
20260504202549 71 193 5.0 10.0 0.00 0.00 0.00 31 1005.2
20260504202049 71 199 1.0 7.0 0.00 0.00 0.00 32 1005.1
20260504201548 71 215 4.0 8.0 0.00 0.00 0.00 32 1005.0
20260504201048 71 179 3.0 10.0 0.00 0.00 0.00 32 1005.1
20260504200548 72 237 2.0 12.0 0.00 0.00 0.00 31 1005.1
20260504200054 72 195 6.0 12.0 0.00 0.00 0.00 33 1004.9
20260504195546 72 219 4.0 11.0 0.00 0.00 0.00 33 1005.0
20260504195045 72 159 4.0 11.0 0.00 0.00 0.00 32 1005.1
20260504194547 72 232 4.0 14.0 0.00 0.00 0.00 32 1005.2
20260504194047 73 216 6.0 14.0 0.00 0.00 0.00 32 1005.2
20260504193546 73 198 3.0 10.0 0.00 0.00 0.00 32 1005.4
20260504193044 73 280 4.0 14.0 0.00 0.00 0.00 31 1005.2
20260504192544 73 201 5.0 14.0 0.00 0.00 0.00 29 1005.2
20260504192042 74 168 5.0 11.0 0.00 0.00 0.00 33 1005.2
20260504191553 73 258 3.0 13.0 0.00 0.00 0.00 31 1005.1
20260504191042 73 163 6.0 13.0 0.00 0.00 0.00 30 1005.2
20260504190541 73 196 3.0 10.0 0.00 0.00 0.00 28 1005.1
20260504190047 73 95 3.0 11.0 0.00 0.00 0.00 29 1005.2
20260504185543 72 221 5.0 11.0 0.00 0.00 0.00 31 1005.2
20260504185039 73 312 6.0 11.0 0.00 0.00 0.00 29 1005.3
20260504184552 74 256 3.0 8.0 0.00 0.00 0.00 31 1005.4